Weather History for KHBG - March, 2012

Change the Weather History Date:

Monday, March 5, 2012

  Actual Average Record
Temperature  
Mean Temperature 61 °F 57 °F  
Max Temperature 75 °F 69 °F 85 °F (1955)
Min Temperature 46 °F 45 °F 22 °F (2002)
Degree Days  
Heating Degree Days 4 9  
Month to date heating degree days 24 47  
Since 1 July heating degree days 1346 1725  
Cooling Degree Days 0 1  
Month to date cooling degree days 22 5  
Year to date cooling degree days 64 20  
Growing Degree Days 12 (Base 50)    
Moisture  
Dew Point 38 °F    
Average Humidity 51    
Maximum Humidity 80    
Minimum Humidity 21    
Precipitation  
Precipitation 0.00 in 0.19 in 2.75 in (2011)
Month to date precipitation 1.81 0.95  
Year to date precipitation 14.96 12.08  
Sea Level Pressure  
Sea Level Pressure 30.33 in    
Wind  
Wind Speed 5 mph (NW)    
Max Wind Speed 13 mph    
Max Gust Speed 25 mph    
Visibility 10 miles    
Events      
T = Trace of Precipitation, MM = Missing Value Source: NWS Daily Summary

Daily Weather History Graph

Daily Weather History Graph

Search for Another Location

Airport or City:

Trip Planner

Search our weather history database for the weather conditions in past years. The results will help you decide how hot, cold, wet, or windy it might be!

Date:

Astronomy

Mar. 05, 2012 Rise Set
Actual Time 6:18 AM CST 5:58 PM CST
Civil Twilight 5:54 AM CST 6:22 PM CST
Nautical Twilight 5:26 AM CST 6:50 PM CST
Astronomical Twilight 4:58 AM CST 7:19 PM CST
Moon 3:24 PM CST (3/5) 4:08 AM CST (3/5)
Length of Visible Light 12h 28m
Length of Day
11h 40m
Waxing Gibbous, 91% of the Moon is Illuminated
Mar 5
Waxing Gibbous
Mar 8
Full
Mar 14
Last Quarter
Mar 22
New
Mar 30
First Quarter

Hourly Weather History & Observations

Time (CST) Temp. Dew Point Humidity Pressure Visibility Wind Dir Wind Speed Gust Speed Precip Events Conditions
12:53 AM 54.0 °F 33.1 °F 45% 30.24 in 10.0 mi WSW 8.1 mph - N/A   Clear
1:53 AM 53.1 °F 36.0 °F 52% 30.24 in 10.0 mi WSW 9.2 mph 17.3 mph N/A   Clear
2:53 AM 53.1 °F 37.0 °F 55% 30.24 in 10.0 mi West 9.2 mph - N/A   Clear
3:53 AM 52.0 °F 37.9 °F 59% 30.25 in 10.0 mi West 5.8 mph - N/A   Clear
4:53 AM 50.0 °F 39.0 °F 66% 30.27 in 10.0 mi West 3.5 mph - N/A   Clear
6:53 AM 51.1 °F 39.9 °F 66% 30.32 in 10.0 mi West 4.6 mph - N/A   Clear
7:53 AM 57.0 °F 41.0 °F 55% 30.35 in 10.0 mi WNW 5.8 mph - N/A   Clear
8:53 AM 63.0 °F 37.9 °F 40% 30.36 in 10.0 mi NW 12.7 mph - N/A   Unknown
11:53 AM 70.0 °F 35.1 °F 28% 30.37 in 10.0 mi NNW 5.8 mph - N/A   Clear
12:53 PM 72.0 °F 35.1 °F 26% 30.35 in 10.0 mi NNE 5.8 mph - N/A   Clear
1:53 PM 73.9 °F 36.0 °F 25% 30.33 in 10.0 mi Variable 5.8 mph - N/A   Clear
2:53 PM 75.0 °F 36.0 °F 24% 30.32 in 10.0 mi North 8.1 mph - N/A   Clear
3:53 PM 75.0 °F 34.0 °F 22% 30.32 in 10.0 mi North 9.2 mph - N/A   Clear
4:53 PM 73.0 °F 35.1 °F 25% 30.32 in 10.0 mi North 4.6 mph - N/A   Clear
5:53 PM 69.1 °F 35.1 °F 29% 30.34 in 10.0 mi NE 3.5 mph - N/A   Clear
6:53 PM 60.1 °F 42.1 °F 51% 30.35 in 10.0 mi Calm Calm - N/A   Clear
7:53 PM 54.0 °F 45.0 °F 72% 30.37 in 10.0 mi Calm Calm - N/A   Clear
8:53 PM 52.0 °F 44.1 °F 74% 30.39 in 10.0 mi Calm Calm - N/A   Clear
9:53 PM 50.0 °F 43.0 °F 77% 30.40 in 10.0 mi Calm Calm - N/A   Clear
10:53 PM 48.0 °F 42.1 °F 80% 30.40 in 10.0 mi Calm Calm - N/A   Clear
11:53 PM 46.0 °F 41.0 °F 83% 30.39 in 10.0 mi Calm Calm - N/A   Clear